GW3344 Weather Reports


time (UTC)temp
F
wind
direction
speed
knots
gust
knots
rain 1hr
in
rain 24hr
in
rain mn
in
humidity
%
barometer
mb
20260507081312 0 0 0.0 0.0 0.00 0.01 0.00 100
20260507080410 0 0 0.0 0.0 0.00 0.01 0.00 100
20260507075414 0 0 0.0 0.0 0.00 0.01 0.00 100
20260507073523 0 0 0.0 0.0 0.00 0.01 0.00 100
20260507071623 0 0 0.0 0.0 0.00 0.01 0.00 100
20260507071524 0 0 0.0 0.0 0.00 0.01 0.00 100
20260507065622 0 0 0.0 0.0 0.00 0.01 0.00 100
20260507064625 0 0 0.0 0.0 0.00 0.01 0.00 100
20260507063624 0 0 0.0 0.0 0.00 0.01 0.00 100
20260507062624 42 202 0.0 0.0 0.00 0.01 0.00 96 1014.9
20260507060623 0 0 0.0 0.0 0.00 0.01 0.00 100
20260507055624 0 0 0.0 0.0 0.00 0.01 0.00 100
20260507054625 0 0 0.0 0.0 0.00 0.01 0.00 100
20260507053624 0 0 0.0 0.0 0.00 0.01 0.00 100
20260507052625 0 0 0.0 0.0 0.00 0.01 0.00 100
20260507051625 43 202 0.0 0.0 0.00 0.01 0.00 95 1015.1
20260507050624 43 202 0.0 0.0 0.00 0.01 0.00 95 1015.4
20260507045722 43 202 0.0 0.0 0.00 0.01 0.00 94 1015.6
20260507044724 0 0 0.0 0.0 0.00 0.01 0.00 100
20260507043740 0 0 0.0 0.0 0.00 0.01 0.00 100
20260507041724 0 0 0.0 0.0 0.00 0.01 0.00 100
20260507040727 0 0 0.0 0.0 0.00 0.01 0.00 100
20260507035725 0 0 0.0 0.0 0.00 0.01 0.00 100
20260507034823 0 0 0.0 0.0 0.00 0.01 0.00 100
20260507033823 0 0 0.0 0.0 0.00 0.01 0.00 100
20260507032913 0 0 0.0 0.0 0.00 0.01 0.00 100
20260507030915 0 0 0.0 0.0 0.00 0.01 0.00 100
20260507025928 0 0 0.0 0.0 0.00 0.01 0.00 100
20260507024915 0 0 0.0 0.0 0.00 0.01 0.00 100
20260507024012 45 247 0.9 0.9 0.00 0.01 0.01 94 1015.3
20260507023913 45 247 0.9 0.9 0.00 0.01 0.01 94 1015.3
20260507022914 0 0 0.0 0.0 0.00 0.01 0.00 100
20260507021914 0 0 0.0 0.0 0.00 0.01 0.00 100
20260507020814 45 225 1.7 2.6 0.00 0.01 0.01 95 1015.4
20260507015813 0 0 0.0 0.0 0.00 0.01 0.00 100
20260507014812 0 0 0.0 0.0 0.00 0.01 0.00 100
20260507013813 0 0 0.0 0.0 0.00 0.01 0.00 100
20260507012911 0 0 0.0 0.0 0.00 0.01 0.00 100
20260507011915 0 0 0.0 0.0 0.00 0.01 0.00 100
20260507010912 45 247 0.0 0.0 0.00 0.01 0.01 93 1014.9
20260507004912 45 247 0.0 0.0 0.00 0.02 0.01 93 1014.8
20260507003914 45 225 0.0 0.0 0.00 0.02 0.01 93 1014.8
20260507003012 45 225 0.0 0.0 0.00 0.02 0.01 93 1014.8
20260507002012 45 225 0.0 0.0 0.00 0.02 0.01 92 1014.6
20260507001012 0 0 0.0 0.0 0.00 0.02 0.00 100
20260507000014 0 0 0.0 0.0 0.00 0.02 0.00 100
20260506235014 46 270 0.0 0.0 0.00 0.02 0.01 93 1014.7
20260506233115 45 315 0.0 0.0 0.00 0.02 0.01 93 1014.2
20260506232112 45 280 0.9 2.6 0.00 0.02 0.01 93 1014.3
20260506230114 45 312 0.0 0.0 0.00 0.02 0.01 94 1014.1
20260506225115 44 292 0.0 2.6 0.00 0.02 0.01 93 1014.1
20260506224115 44 302 0.0 1.7 0.00 0.02 0.01 92 1013.8
20260506222212 45 306 1.7 3.5 0.00 0.03 0.01 91 1013.5
20260506221214 46 310 0.9 2.6 0.01 0.03 0.01 90 1013.5
20260506215312 47 307 1.7 3.5 0.01 0.03 0.01 89 1013.1
20260506212314 50 360 0.0 0.0 0.01 0.03 0.01 82 1012.4
20260506211314 51 321 0.0 2.6 0.00 0.03 0.00 80 1012.4
20260506210314 51 112 0.0 0.0 0.00 0.03 0.00 78 1012.3
20260506204314 51 112 0.0 0.0 0.00 0.03 0.00 77 1012.2
20260506203313 52 93 0.9 2.6 0.00 0.03 0.00 77 1012.4
20260506200313 51 90 0.0 1.7 0.00 0.03 0.00 80 1012.4
20260506195313 51 90 0.0 0.0 0.00 0.03 0.00 78 1012.5
20260506194313 51 22 0.0 0.0 0.00 0.03 0.00 77 1012.7
20260506193411 52 294 0.0 0.0 0.00 0.03 0.00 76 1012.6
20260506191414 51 96 1.7 4.3 0.00 0.03 0.00 80 1012.3
20260506190413 50 121 0.0 0.0 0.00 0.03 0.00 83 1012.4
20260506184414 49 100 1.7 3.5 0.00 0.03 0.00 86 1012.4
20260506183415 48 90 0.0 2.6 0.00 0.03 0.00 87 1012.9
20260506182514 49 90 1.7 2.6 0.00 0.03 0.00 88 1012.7
20260506181612 48 90 0.0 0.0 0.00 0.03 0.00 88 1012.8
20260506175614 48 90 0.0 0.0 0.00 0.03 0.00 84 1012.8
20260506174613 49 90 0.9 2.6 0.00 0.03 0.00 85 1013.0
20260506173611 48 75 0.0 1.7 0.00 0.03 0.00 84 1012.8
20260506172613 49 90 1.7 2.6 0.00 0.03 0.00 84 1012.7
20260506171613 48 90 0.0 0.0 0.00 0.03 0.00 86 1012.6
20260506165613 48 90 0.0 0.9 0.00 0.03 0.00 87 1012.4
20260506163614 0 0 0.0 0.0 0.00 0.03 0.00 100
20260506162612 0 0 0.0 0.0 0.00 0.03 0.00 100
20260506160712 47 45 0.0 0.0 0.00 0.03 0.00 87 1012.3
20260506155719 48 90 3.5 3.5 0.00 0.03 0.00 89 1012.4
20260506154718 48 90 0.9 0.9 0.00 0.03 0.00 90 1012.3
20260506153718 48 90 0.0 0.0 0.00 0.03 0.00 91 1012.1
20260506152719 48 90 1.7 3.5 0.00 0.03 0.00 92 1012.2
20260506151817 47 62 0.0 0.9 0.00 0.03 0.00 94 1012.2
20260506150819 47 82 0.9 2.6 0.00 0.03 0.00 94 1012.0
20260506145918 47 88 1.7 3.5 0.00 0.03 0.00 92 1012.1
20260506143920 47 90 1.7 2.6 0.00 0.03 0.00 95 1012.1
20260506142019 47 108 3.5 4.3 0.00 0.03 0.00 94 1012.0
20260506141020 46 90 1.7 3.5 0.00 0.03 0.00 94 1011.9
20260506140019 46 76 2.6 3.5 0.00 0.03 0.00 94 1011.9
20260506135019 46 90 0.0 0.0 0.00 0.03 0.00 94 1011.9
20260506134036 46 90 2.6 5.2 0.00 0.03 0.00 93 1011.6
20260506132019 46 118 2.6 4.3 0.00 0.03 0.00 94 1011.6
20260506131118 46 104 3.5 6.1 0.00 0.03 0.00 95 1011.4
20260506130119 46 100 2.6 4.3 0.00 0.03 0.00 95 1011.3
20260506125118 47 92 5.2 7.8 0.00 0.03 0.00 95 1011.3
20260506123118 47 108 3.5 7.0 0.00 0.03 0.00 96 1011.1
20260506122118 46 156 0.0 3.5 0.00 0.03 0.00 96 1011.1
20260506121217 47 90 4.3 6.1 0.00 0.03 0.00 96 1010.9
20260506120220 47 90 3.5 6.1 0.00 0.03 0.00 95 1010.8
20260506115219 47 90 2.6 3.5 0.00 0.03 0.00 95 1011.2
20260506114318 47 89 3.5 6.1 0.00 0.03 0.00 94 1011.0
20260506114220 47 90 3.5 6.1 0.00 0.03 0.00 94 1011.1
20260506113220 47 90 4.3 5.2 0.00 0.03 0.00 96 1011.1
20260506112220 47 86 1.7 3.5 0.00 0.03 0.00 96 1011.3
20260506110218 47 112 0.9 2.6 0.00 0.03 0.00 96 1011.1
20260506104219 47 118 2.6 5.2 0.00 0.03 0.00 96 1010.6
20260506103317 47 104 4.3 7.0 0.00 0.03 0.00 96 1010.3
20260506102320 47 102 3.5 7.0 0.00 0.03 0.00 96 1010.7
20260506100418 47 111 1.7 3.5 0.00 0.03 0.00 96 1011.2
20260506095418 47 91 4.3 6.1 0.00 0.03 0.00 96 1011.1
20260506094517 47 112 0.0 0.0 0.00 0.03 0.00 97 1011.2
20260506093519 47 112 0.0 0.9 0.00 0.03 0.00 95 1011.3
20260506092518 47 90 0.0 0.9 0.00 0.03 0.00 96 1011.2
20260506083618 48 112 3.5 6.1 0.00 0.03 0.00 95 1011.0
20260506082619 48 80 0.0 2.6 0.00 0.03 0.00 97 1010.9